Погода в Задубье

Россия / Костромская область     57°41′06″N   40°57′34″E
темп.,
°C
ветер,
м/с
пор.,
м/с
влажн.,
%
обл.,
%
осадки,
мм/ч
давл.,
гПа
погр.,
м
20 июня, вс
вс2000:00+18зюз33855 0.0 102146
03:00+17з22905 0.0 102226
06:00+19зюз25815 0.0 1022138
09:00+24зюз34665 0.0 1022417
12:00+27юз44575 0.0 1022992
15:00+28зюз44534 0.0 10211306
18:00+27юз35640 0.0 1020443
21:00+22юз34830 0.0 102058
21 июня, пн
пн2100:00+19юз23860 0.0 102023
03:00+18юз33890 0.0 102135
06:00+20юз25830 0.0 1021152
09:00+25юз33670 0.0 1021459
12:00+28юз33575 0.0 10211113
15:00+29зюз34525 0.0 10201696
18:00+28юз346393 0.0 1020400
21:00+22зюз3484100 0.0 102058
22 июня, вт
вт2200:00+20юз227461 0.0 102126
03:00+18юз227980 0.0 102115
06:00+21юз237954 0.0 1022101
09:00+25зюз236570 0.0 1022409
12:00+28ююз3355100 0.0 10221148
15:00+29юз335199 0.0 10211594
18:00+28юз24615 0.0 1020428
21:00+23ююз22755 0.0 102014
23 июня, ср
ср2300:00+21ююз22835 0.0 102117
03:00+19юз229045 0.0 102129
06:00+22зюз25810 0.0 1021181
09:00+26з23665 0.0 1021448
12:00+29зюз345543 0.0 10211078
15:00+31з344942 0.0 10201627
18:00+30юз24615 0.0 1019387
21:00+25юз46750 0.0 101986
24 июня, чт
чт2400:00+22зюз33755 0.0 102035
03:00+20юз228065 0.0 101919
06:00+22зюз24785 0.0 1020128
09:00+27з34635 0.0 1020414
12:00+31зюз455351 0.0 10191134
15:00+32зюз34489 0.0 10191698
18:00+30юз47602 0.0 1018361
21:00+25зюз3573100 0.0 101887